| time (UTC) | temp F | wind direction | speed knots | gust knots | rain 1hr in | rain 24hr in | rain mn in | humidity % | barometer mb |
| 20260508141842 | 54 | 323 | 4.3 | 13.0 | 0.00 | 0.15 | 0.00 | 66 | 1017.1 |
| 20260508140842 | 55 | 334 | 3.5 | 10.4 | 0.00 | 0.15 | 0.00 | 65 | 1017.1 |
| 20260508135842 | 55 | 319 | 5.2 | 13.0 | 0.00 | 0.15 | 0.00 | 62 | 1017.0 |
| 20260508134902 | 56 | 309 | 3.5 | 7.0 | 0.00 | 0.15 | 0.00 | 60 | 1017.0 |
| 20260508133842 | 57 | 289 | 1.7 | 7.0 | 0.00 | 0.15 | 0.00 | 52 | 1016.9 |
| 20260508132842 | 55 | 202 | 2.6 | 5.2 | 0.00 | 0.15 | 0.00 | 55 | 1017.0 |
| 20260508131842 | 56 | 192 | 3.5 | 7.0 | 0.00 | 0.15 | 0.00 | 52 | 1016.9 |
| 20260508130842 | 55 | 213 | 3.5 | 5.2 | 0.00 | 0.15 | 0.00 | 52 | 1016.8 |
| 20260508125841 | 55 | 218 | 2.6 | 6.1 | 0.00 | 0.15 | 0.00 | 56 | 1016.9 |
| 20260508124841 | 55 | 195 | 5.2 | 7.8 | 0.00 | 0.15 | 0.00 | 61 | 1016.9 |
| 20260508123841 | 55 | 203 | 4.3 | 8.7 | 0.00 | 0.15 | 0.00 | 62 | 1016.9 |
| 20260508122902 | 54 | 203 | 5.2 | 8.7 | 0.00 | 0.15 | 0.00 | 64 | 1016.8 |
| 20260508121841 | 54 | 202 | 5.2 | 9.6 | 0.00 | 0.15 | 0.00 | 66 | 1016.9 |
| 20260508120841 | 54 | 201 | 7.0 | 11.3 | 0.00 | 0.15 | 0.00 | 63 | 1016.8 |
| 20260508115841 | 55 | 196 | 6.1 | 9.6 | 0.00 | 0.15 | 0.00 | 57 | 1016.7 |
| 20260508114841 | 56 | 188 | 0.9 | 5.2 | 0.00 | 0.15 | 0.00 | 53 | 1016.7 |
| 20260508113901 | 56 | 173 | 2.6 | 4.3 | 0.00 | 0.15 | 0.00 | 56 | 1016.6 |
| 20260508112841 | 55 | 198 | 3.5 | 6.1 | 0.00 | 0.15 | 0.00 | 59 | 1016.6 |
| 20260508111841 | 54 | 201 | 7.0 | 11.3 | 0.00 | 0.15 | 0.00 | 61 | 1016.6 |
| 20260508110841 | 56 | 154 | 3.5 | 8.7 | 0.00 | 0.15 | 0.00 | 53 | 1016.5 |
| 20260508105841 | 55 | 100 | 2.6 | 5.2 | 0.00 | 0.15 | 0.00 | 53 | 1016.5 |
| 20260508104842 | 56 | 118 | 3.5 | 7.8 | 0.00 | 0.15 | 0.00 | 52 | 1016.4 |
| 20260508103841 | 55 | 105 | 5.2 | 8.7 | 0.00 | 0.15 | 0.00 | 52 | 1016.4 |
| 20260508102841 | 55 | 89 | 5.2 | 7.8 | 0.00 | 0.15 | 0.00 | 51 | 1016.3 |
| 20260508101841 | 55 | 111 | 4.3 | 7.8 | 0.00 | 0.15 | 0.00 | 49 | 1016.4 |
| 20260508100841 | 55 | 102 | 4.3 | 8.7 | 0.00 | 0.15 | 0.00 | 54 | 1016.4 |
| 20260508095841 | 55 | 88 | 4.3 | 7.8 | 0.00 | 0.15 | 0.00 | 57 | 1016.4 |
| 20260508094841 | 54 | 89 | 5.2 | 8.7 | 0.00 | 0.15 | 0.00 | 61 | 1016.4 |
| 20260508093901 | 54 | 94 | 3.5 | 7.0 | 0.00 | 0.15 | 0.00 | 64 | 1016.5 |
| 20260508092901 | 53 | 92 | 4.3 | 8.7 | 0.00 | 0.15 | 0.00 | 68 | 1016.5 |
| 20260508091840 | 53 | 112 | 4.3 | 9.6 | 0.00 | 0.15 | 0.00 | 67 | 1016.3 |
| 20260508090841 | 53 | 101 | 4.3 | 7.8 | 0.00 | 0.15 | 0.00 | 68 | 1016.3 |
| 20260508085846 | 52 | 93 | 6.1 | 10.4 | 0.00 | 0.15 | 0.00 | 71 | 1016.1 |
| 20260508084920 | 52 | 89 | 7.0 | 12.2 | 0.00 | 0.15 | 0.00 | 75 | 1016.1 |
| 20260508083841 | 52 | 90 | 6.1 | 11.3 | 0.00 | 0.15 | 0.00 | 74 | 1016.0 |
| 20260508082928 | 52 | 99 | 4.3 | 9.6 | 0.00 | 0.15 | 0.00 | 72 | 1016.0 |
| 20260508081840 | 52 | 101 | 3.5 | 7.8 | 0.00 | 0.15 | 0.00 | 72 | 1016.0 |
| 20260508080840 | 51 | 95 | 4.3 | 8.7 | 0.00 | 0.15 | 0.00 | 74 | 1016.0 |
| 20260508075840 | 51 | 88 | 5.2 | 7.8 | 0.00 | 0.15 | 0.00 | 76 | 1016.1 |
| 20260508074840 | 51 | 113 | 4.3 | 7.8 | 0.00 | 0.15 | 0.00 | 78 | 1016.0 |
| 20260508073840 | 51 | 111 | 2.6 | 5.2 | 0.00 | 0.15 | 0.00 | 78 | 1016.0 |
| 20260508072900 | 51 | 150 | 1.7 | 3.5 | 0.00 | 0.15 | 0.00 | 82 | 1015.9 |
| 20260508072000 | 50 | 138 | 1.7 | 2.6 | 0.00 | 0.15 | 0.00 | 86 | 1015.7 |
| 20260508070840 | 50 | 265 | 0.9 | 1.7 | 0.00 | 0.15 | 0.00 | 88 | 1015.6 |
| 20260508065840 | 50 | 197 | 0.9 | 1.7 | 0.00 | 0.15 | 0.00 | 91 | 1015.5 |
| 20260508064840 | 49 | 31 | 0.9 | 1.7 | 0.00 | 0.15 | 0.00 | 93 | 1015.4 |
| 20260508063840 | 49 | 23 | 0.0 | 0.9 | 0.00 | 0.15 | 0.00 | 96 | 1015.3 |
| 20260508062900 | 49 | 327 | 0.9 | 1.7 | 0.00 | 0.15 | 0.00 | 98 | 1015.3 |
| 20260508061900 | 48 | 332 | 0.9 | 1.7 | 0.00 | 0.15 | 0.00 | 98 | 1015.2 |
| 20260508060840 | 48 | 37 | 1.7 | 2.6 | 0.00 | 0.15 | 0.00 | 98 | 1015.0 |
| 20260508055840 | 48 | 49 | 0.9 | 2.6 | 0.00 | 0.15 | 0.00 | 99 | 1015.1 |
| 20260508054905 | 47 | 287 | 0.9 | 0.9 | 0.00 | 0.15 | 0.00 | 98 | 1014.9 |
| 20260508053840 | 47 | 307 | 0.9 | 2.6 | 0.00 | 0.15 | 0.00 | 98 | 1014.9 |
| 20260508052840 | 46 | 260 | 2.6 | 3.5 | 0.00 | 0.15 | 0.00 | 97 | 1014.9 |
| 20260508051840 | 47 | 256 | 0.9 | 2.6 | 0.00 | 0.15 | 0.00 | 97 | 1014.8 |
| 20260508050840 | 47 | 109 | 1.7 | 3.5 | 0.00 | 0.15 | 0.00 | 98 | 1014.7 |
| 20260508045839 | 47 | 124 | 1.7 | 2.6 | 0.00 | 0.15 | 0.00 | 99 | 1014.7 |
| 20260508044844 | 47 | 251 | 0.9 | 0.9 | 0.00 | 0.15 | 0.00 | 99 | 1014.7 |
| 20260508043840 | 47 | 330 | 0.9 | 1.7 | 0.00 | 0.15 | 0.00 | 100 | 1014.7 |
| 20260508042840 | 46 | 253 | 0.9 | 1.7 | 0.00 | 0.15 | 0.00 | 99 | 1014.7 |
| 20260508041840 | 46 | 300 | 0.9 | 1.7 | 0.00 | 0.15 | 0.00 | 99 | 1014.7 |
| 20260508040840 | 46 | 308 | 0.9 | 1.7 | 0.00 | 0.15 | 0.00 | 99 | 1014.7 |
| 20260508035830 | 46 | 276 | 0.9 | 1.7 | 0.00 | 0.15 | 0.00 | 98 | 1014.6 |
| 20260508034829 | 46 | 5 | 0.9 | 2.6 | 0.00 | 0.15 | 0.00 | 98 | 1014.6 |
| 20260508033829 | 46 | 43 | 0.9 | 2.6 | 0.00 | 0.15 | 0.00 | 98 | 1014.6 |
| 20260508032829 | 46 | 7 | 0.9 | 1.7 | 0.01 | 0.15 | 0.00 | 97 | 1014.6 |
| 20260508031829 | 46 | 270 | 1.7 | 2.6 | 0.01 | 0.15 | 0.00 | 97 | 1014.6 |
| 20260508030829 | 46 | 317 | 0.9 | 1.7 | 0.01 | 0.15 | 0.00 | 97 | 1014.6 |
| 20260508025829 | 47 | 280 | 0.9 | 1.7 | 0.01 | 0.15 | 0.15 | 97 | 1014.7 |
| 20260508024829 | 47 | 26 | 0.9 | 1.7 | 0.01 | 0.15 | 0.15 | 97 | 1014.7 |
| 20260508023829 | 47 | 286 | 0.9 | 0.9 | 0.01 | 0.15 | 0.15 | 96 | 1014.7 |
| 20260508022829 | 48 | 9 | 0.9 | 2.6 | 0.00 | 0.14 | 0.14 | 96 | 1014.7 |
| 20260508021829 | 48 | 333 | 0.9 | 1.7 | 0.00 | 0.14 | 0.14 | 96 | 1014.6 |
| 20260508020828 | 48 | 320 | 0.9 | 0.9 | 0.00 | 0.14 | 0.14 | 96 | 1014.7 |
| 20260508015829 | 48 | 207 | 0.9 | 0.9 | 0.00 | 0.14 | 0.14 | 96 | 1014.7 |
| 20260508014829 | 48 | 252 | 0.9 | 2.6 | 0.00 | 0.14 | 0.14 | 95 | 1014.7 |
| 20260508013829 | 48 | 333 | 0.9 | 2.6 | 0.00 | 0.14 | 0.14 | 95 | 1014.8 |
| 20260508012828 | 48 | 328 | 0.9 | 4.3 | 0.00 | 0.14 | 0.14 | 95 | 1014.7 |
| 20260508011828 | 48 | 299 | 0.9 | 2.6 | 0.00 | 0.14 | 0.14 | 95 | 1014.8 |
| 20260508010829 | 48 | 322 | 1.7 | 2.6 | 0.00 | 0.14 | 0.14 | 95 | 1014.9 |
| 20260508005828 | 48 | 321 | 1.7 | 3.5 | 0.00 | 0.14 | 0.14 | 95 | 1014.9 |
| 20260508004828 | 48 | 317 | 1.7 | 3.5 | 0.00 | 0.14 | 0.14 | 94 | 1014.9 |
| 20260508003828 | 49 | 302 | 0.0 | 0.9 | 0.00 | 0.14 | 0.14 | 94 | 1014.9 |
| 20260508002849 | 49 | 341 | 0.9 | 1.7 | 0.00 | 0.14 | 0.14 | 93 | 1014.9 |
| 20260508001828 | 49 | 33 | 0.9 | 1.7 | 0.00 | 0.14 | 0.14 | 93 | 1014.9 |
| 20260508000828 | 49 | 300 | 0.9 | 0.9 | 0.00 | 0.14 | 0.14 | 93 | 1015.0 |
| 20260507235848 | 49 | 116 | 0.9 | 1.7 | 0.00 | 0.14 | 0.14 | 93 | 1015.0 |
| 20260507234828 | 49 | 5 | 1.7 | 3.5 | 0.01 | 0.14 | 0.14 | 93 | 1015.0 |
| 20260507233828 | 49 | 24 | 1.7 | 2.6 | 0.03 | 0.14 | 0.14 | 93 | 1015.0 |
| 20260507232828 | 49 | 32 | 0.9 | 2.6 | 0.06 | 0.14 | 0.14 | 93 | 1015.0 |
| 20260507231828 | 50 | 127 | 1.7 | 3.5 | 0.09 | 0.14 | 0.14 | 93 | 1015.0 |
| 20260507230829 | 50 | 28 | 1.7 | 2.6 | 0.09 | 0.14 | 0.14 | 92 | 1015.0 |
| 20260507225828 | 50 | 1 | 0.9 | 1.7 | 0.09 | 0.14 | 0.14 | 91 | 1014.9 |
| 20260507224828 | 50 | 28 | 0.9 | 1.7 | 0.12 | 0.13 | 0.13 | 91 | 1014.9 |
| 20260507223848 | 50 | 214 | 2.6 | 5.2 | 0.09 | 0.11 | 0.11 | 90 | 1015.0 |
| 20260507222848 | 49 | 198 | 3.5 | 7.0 | 0.06 | 0.08 | 0.08 | 90 | 1015.0 |
| 20260507221828 | 50 | 248 | 1.7 | 4.3 | 0.04 | 0.05 | 0.05 | 89 | 1015.0 |
| 20260507220827 | 49 | 357 | 0.9 | 1.7 | 0.04 | 0.05 | 0.05 | 88 | 1015.0 |
| 20260507215827 | 49 | 357 | 0.9 | 3.5 | 0.03 | 0.05 | 0.05 | 88 | 1015.0 |
| 20260507214827 | 49 | 321 | 1.7 | 5.2 | 0.00 | 0.02 | 0.02 | 88 | 1014.9 |
| 20260507213828 | 50 | 21 | 1.7 | 2.6 | 0.00 | 0.02 | 0.02 | 88 | 1014.9 |
| 20260507212831 | 50 | 340 | 1.7 | 4.3 | 0.00 | 0.02 | 0.02 | 86 | 1014.8 |
| 20260507211831 | 50 | 358 | 0.9 | 2.6 | 0.00 | 0.02 | 0.02 | 86 | 1014.8 |
| 20260507210831 | 51 | 16 | 1.7 | 2.6 | 0.00 | 0.02 | 0.02 | 85 | 1014.7 |
| 20260507205831 | 51 | 31 | 2.6 | 3.5 | 0.00 | 0.02 | 0.02 | 83 | 1014.7 |
| 20260507204831 | 51 | 30 | 1.7 | 3.5 | 0.00 | 0.02 | 0.02 | 82 | 1014.5 |
| 20260507203832 | 50 | 63 | 0.9 | 2.6 | 0.00 | 0.02 | 0.02 | 82 | 1014.5 |
| 20260507202911 | 50 | 90 | 1.7 | 5.2 | 0.01 | 0.02 | 0.02 | 84 | 1014.4 |
| 20260507201831 | 51 | 41 | 2.6 | 5.2 | 0.02 | 0.02 | 0.02 | 86 | 1014.3 |
| 20260507200831 | 51 | 356 | 2.6 | 4.3 | 0.02 | 0.02 | 0.02 | 84 | 1014.3 |
| 20260507195831 | 51 | 351 | 2.6 | 5.2 | 0.02 | 0.02 | 0.02 | 83 | 1014.3 |
| 20260507194831 | 51 | 334 | 2.6 | 7.0 | 0.02 | 0.02 | 0.02 | 79 | 1014.2 |
| 20260507193831 | 51 | 314 | 2.6 | 4.3 | 0.02 | 0.02 | 0.02 | 74 | 1014.2 |
| 20260507192831 | 52 | 307 | 3.5 | 7.0 | 0.01 | 0.01 | 0.01 | 68 | 1014.2 |
| 20260507191831 | 53 | 208 | 4.3 | 7.0 | 0.00 | 0.00 | 0.00 | 61 | 1014.0 |
| 20260507190831 | 53 | 200 | 3.5 | 7.0 | 0.00 | 0.00 | 0.00 | 63 | 1014.0 |
| 20260507185836 | 53 | 201 | 4.3 | 7.8 | 0.00 | 0.00 | 0.00 | 64 | 1014.0 |
| 20260507184836 | 53 | 206 | 4.3 | 8.7 | 0.00 | 0.00 | 0.00 | 64 | 1013.9 |
| 20260507183830 | 53 | 198 | 5.2 | 7.8 | 0.00 | 0.00 | 0.00 | 63 | 1014.0 |
| 20260507182830 | 53 | 205 | 5.2 | 10.4 | 0.00 | 0.00 | 0.00 | 64 | 1014.0 |
| 20260507181831 | 53 | 207 | 5.2 | 9.6 | 0.00 | 0.00 | 0.00 | 65 | 1014.0 |
| 20260507180851 | 53 | 199 | 6.1 | 12.2 | 0.00 | 0.00 | 0.00 | 65 | 1013.9 |
| 20260507175831 | 53 | 190 | 7.8 | 12.2 | 0.00 | 0.00 | 0.00 | 65 | 1013.9 |
| 20260507174835 | 53 | 190 | 7.0 | 10.4 | 0.00 | 0.00 | 0.00 | 66 | 1013.9 |
| 20260507173831 | 54 | 192 | 7.0 | 13.0 | 0.00 | 0.00 | 0.00 | 64 | 1013.8 |
| 20260507172830 | 55 | 191 | 5.2 | 8.7 | 0.00 | 0.00 | 0.00 | 62 | 1013.8 |
| 20260507171830 | 54 | 218 | 4.3 | 10.4 | 0.00 | 0.00 | 0.00 | 61 | 1013.8 |
| 20260507170830 | 54 | 199 | 5.2 | 11.3 | 0.00 | 0.00 | 0.00 | 62 | 1013.8 |
| 20260507165830 | 54 | 195 | 4.3 | 8.7 | 0.00 | 0.00 | 0.00 | 61 | 1013.9 |
| 20260507164850 | 54 | 203 | 4.3 | 9.6 | 0.00 | 0.00 | 0.00 | 60 | 1014.0 |
| 20260507163850 | 54 | 202 | 6.1 | 12.2 | 0.00 | 0.00 | 0.00 | 59 | 1013.9 |
| 20260507162830 | 54 | 196 | 7.0 | 12.2 | 0.00 | 0.00 | 0.00 | 58 | 1013.8 |
| 20260507161830 | 54 | 188 | 7.8 | 13.0 | 0.00 | 0.00 | 0.00 | 59 | 1013.7 |
| 20260507160830 | 55 | 184 | 7.8 | 12.2 | 0.00 | 0.00 | 0.00 | 58 | 1013.8 |
| 20260507155830 | 54 | 192 | 7.8 | 13.9 | 0.00 | 0.00 | 0.00 | 58 | 1013.7 |
| 20260507154830 | 55 | 196 | 7.0 | 14.8 | 0.00 | 0.00 | 0.00 | 55 | 1013.8 |
| 20260507153830 | 55 | 204 | 7.0 | 13.9 | 0.00 | 0.00 | 0.00 | 50 | 1013.8 |
| 20260507152830 | 55 | 208 | 7.8 | 13.9 | 0.00 | 0.00 | 0.00 | 47 | 1013.8 |
| 20260507151830 | 55 | 194 | 7.0 | 11.3 | 0.00 | 0.00 | 0.00 | 49 | 1013.9 |
| 20260507150850 | 55 | 206 | 7.0 | 15.6 | 0.00 | 0.00 | 0.00 | 48 | 1014.0 |
| 20260507145850 | 55 | 217 | 7.0 | 11.3 | 0.00 | 0.00 | 0.00 | 55 | 1014.0 |
| 20260507144850 | 55 | 204 | 6.1 | 14.8 | 0.00 | 0.00 | 0.00 | 54 | 1014.0 |
| 20260507143834 | 55 | 227 | 5.2 | 9.6 | 0.00 | 0.00 | 0.00 | 55 | 1014.1 |
| 20260507142850 | 53 | 190 | 7.8 | 16.5 | 0.00 | 0.00 | 0.00 | 61 | 1014.2 |